[[{"header":{"parameterUnit":"m.s-1","parameterCategory":1,"la1":30.2992,"la2":30.254,"lo1":-89.0895,"lo2":-89.0443,"dy":0.0025,"dx":0.0025,"nx":19,"ny":19,"refTime":"2026-04-29T03:00:00:Z","depth":0,"parameterNumber":2,"parameterNumberName":"U-component_of_WINDS"},"data":[0,0,0,0.3969,0.397,0.4023,0.4024,0.4083,0.4083,0,0,0,0,0,0,0,0,0,0,0,0.395,0.395,0.3969,0.397,0.4023,0.4024,0.4082,0.4083,0,0,0,0,0,0,0,0,0,0,0,0.395,0.395,0.395,0.397,0.4023,0.4024,0.4082,0.4045,0,0,0,0,0,0,0,0,0,0,0.3995,0.3974,0.395,0.3951,0.3971,0.4023,0.4024,0.4043,0.4047,0.4055,0,0.4063,0,0.4074,0.4087,0.4087,0,0,0,0.3972,0.3971,0.3988,0.3951,0.3971,0.4023,0.4,0.4046,0.405,0.406,0.4064,0.4066,0.4075,0.4087,0.4087,0.4129,0.4129,0,0,0.3969,0.3957,0.3985,0.3991,0.3985,0.3998,0.4002,0.4048,0.4051,0.4064,0.4068,0.4076,0.4087,0.4088,0.4129,0.4129,0,0,0,0.3959,0.3955,0.3972,0.3989,0.3999,0.4,0.4004,0.4049,0.4055,0.4069,0.4077,0.4088,0.4088,0.4129,0.4129,0.4123,0,0,0,0.3958,0.3949,0.397,0.3963,0.3998,0.4025,0.4003,0.4052,0.4058,0.4076,0.4088,0.4089,0.4129,0.4129,0.4123,0.4121,0,0,0,0.3947,0.3948,0.3955,0.3963,0.3985,0.4025,0.4034,0.4054,0.4063,0.4087,0.4089,0.4129,0.4129,0.4123,0.4121,0.4129,0,0,0,0.3933,0.3948,0.3955,0.3975,0.3985,0.4021,0.4034,0.4061,0.4081,0.4088,0.4129,0.4129,0.4123,0.4122,0.4128,0.4132,0.4133,0,0,0.3946,0.395,0.3962,0.397,0.4001,0.4013,0.4043,0.4073,0.4085,0.4113,0.4114,0.4123,0.4121,0.4129,0.4141,0.4141,0,0,0,0.3962,0.3971,0.3982,0.4001,0.4024,0.4043,0.4069,0.408,0.4104,0.4098,0.4127,0.4127,0.4132,0.4134,0.4135,0.4139,0.413,0.413,0.413,0.3964,0.3979,0.4001,0.4023,0.404,0.4066,0.4082,0.41,0.411,0.4117,0.4125,0.4131,0.4133,0.4134,0.4138,0.4129,0.4129,0.4129,0.4129,0.3984,0.3998,0.4011,0.4037,0.4052,0.4073,0.4098,0.4104,0.4125,0.4126,0.4131,0.4131,0.4134,0.4138,0.4128,0.4128,0.4128,0.4128,0.4128,0.3986,0.3996,0.4009,0.4037,0.4056,0.4076,0.4095,0.4109,0.4121,0.4126,0.4136,0.4136,0.4137,0.4129,0.413,0.413,0.413,0.413,0.413,0.3984,0.3998,0.4014,0.4039,0.4052,0.407,0.4095,0.4107,0.4125,0.4132,0.4133,0.4141,0.4132,0.4129,0.413,0.413,0.413,0.413,0.413,0.3998,0.3997,0.4021,0.4034,0.4063,0.408,0.4096,0.412,0.4132,0.4141,0.4148,0.4139,0.4144,0.4143,0.4141,0.4146,0.4146,0.4146,0.4146,0.4,0.4004,0.403,0.405,0.4071,0.4087,0.4111,0.4129,0.4148,0.4156,0.4157,0.4155,0.4154,0.4159,0.4159,0.4157,0.4165,0.4165,0.4165,0.4009,0.4015,0.4034,0.4054,0.4077,0.4096,0.4118,0.4138,0.4159,0.4166,0.4162,0.4161,0.4158,0.4157,0.4164,0.4163,0.416,0,0]},{"header":{"parameterUnit":"m.s-1","parameterCategory":1,"la1":30.2992,"la2":30.254,"lo1":-89.0895,"lo2":-89.0443,"dy":0.0025,"dx":0.0025,"nx":19,"ny":19,"refTime":"2026-04-29T03:00:00:Z","depth":0,"parameterNumber":3,"parameterNumberName":"V-component_of_WINDS"},"data":[0,0,0,5.711,5.7112,5.7182,5.7183,5.7284,5.7285,0,0,0,0,0,0,0,0,0,0,0,5.7099,5.71,5.711,5.7112,5.7182,5.7183,5.7284,5.7285,0,0,0,0,0,0,0,0,0,0,0,5.7098,5.7099,5.7101,5.7112,5.7182,5.7183,5.7284,5.7226,0,0,0,0,0,0,0,0,0,0,5.7155,5.7154,5.7099,5.7101,5.7113,5.7182,5.7183,5.7223,5.723,5.7258,0,5.7288,0,5.7289,5.7293,5.7293,0,0,0,5.7104,5.7149,5.716,5.7101,5.7114,5.7182,5.7148,5.7226,5.7234,5.7267,5.7289,5.7293,5.729,5.7294,5.7294,5.7489,5.749,0,0,5.71,5.7116,5.7155,5.7165,5.7158,5.7146,5.7151,5.7231,5.7255,5.729,5.7295,5.7292,5.7295,5.7295,5.7488,5.7489,0,0,0,5.7094,5.7113,5.7122,5.7161,5.7173,5.7148,5.7154,5.7252,5.7253,5.7296,5.7293,5.7295,5.7297,5.7486,5.7488,5.7566,0,0,0,5.7092,5.711,5.7121,5.7131,5.7172,5.7214,5.7173,5.7248,5.7256,5.7293,5.7295,5.7298,5.7485,5.7487,5.7561,5.76,0,0,0,5.7091,5.711,5.7123,5.7131,5.7162,5.7212,5.7218,5.7249,5.7255,5.7294,5.7298,5.7484,5.7487,5.7556,5.7593,5.7656,0,0,0,5.7093,5.7191,5.7125,5.7232,5.7162,5.7261,5.7218,5.729,5.7332,5.7296,5.7485,5.7488,5.7555,5.7588,5.7651,5.7712,5.7739,0,0,5.7225,5.7208,5.7269,5.7212,5.7327,5.7249,5.7374,5.7397,5.7386,5.7454,5.7459,5.7563,5.7592,5.7655,5.7885,5.7906,0,0,0,5.7316,5.7361,5.7388,5.743,5.7451,5.7472,5.7475,5.7483,5.7541,5.7425,5.7602,5.7619,5.7655,5.7683,5.7702,5.7731,5.7502,5.7501,5.7501,5.7524,5.7506,5.7607,5.7596,5.7637,5.7639,5.767,5.7681,5.7649,5.7691,5.7711,5.7853,5.7887,5.7901,5.7932,5.7742,5.7742,5.7743,5.7743,5.7715,5.7775,5.7731,5.7814,5.7792,5.786,5.7865,5.784,5.7899,5.7837,5.7867,5.7801,5.7925,5.7951,5.7748,5.7747,5.7747,5.7746,5.7746,5.7849,5.7875,5.7884,5.7942,5.7989,5.7974,5.8033,5.8011,5.799,5.8021,5.8039,5.8038,5.8033,5.8031,5.8032,5.8032,5.8033,5.8033,5.8033,5.7985,5.7993,5.8046,5.8077,5.81,5.8128,5.813,5.8152,5.817,5.8149,5.8149,5.8113,5.7941,5.7898,5.8041,5.8039,5.8038,5.8038,5.8037,5.8185,5.8136,5.8219,5.8243,5.8276,5.8323,5.8294,5.834,5.8355,5.8384,5.8341,5.8218,5.8197,5.8183,5.8147,5.8345,5.8345,5.8345,5.8345,5.8298,5.8286,5.8365,5.8404,5.844,5.8422,5.8514,5.8516,5.851,5.8517,5.8485,5.8436,5.8422,5.841,5.839,5.8356,5.8604,5.8604,5.8604,5.842,5.841,5.8494,5.8489,5.8512,5.8533,5.8618,5.8663,5.8646,5.8614,5.8522,5.8511,5.8432,5.8407,5.8374,5.8343,5.8281,0,0]}]]